Terug naar catalogus

COSMOS 839 DEB

ActiefUNKNOWN
NORAD 10412·DEBRIS·🇷🇺 Russia

Gelanceerd Jul 8, 1976 vanaf Plesetsk Cosmodrome

Loading…

Volgende Passages (komende 24 uur)

TLE

VersSource: Space-Track

Epoch: Sep 14, 2026, 05:24 UTC

1 10412U 76067F   26257.22567433 -.00000030  00000-0  94715-4 0  9992
2 10412  65.6817 168.2599 0686857   7.8693 144.4920 12.33843437260758

Volg COSMOS 839 DEB in realtime met AllMySat

Download on the App Store